Home   Weather   Tampa   Past weeks

Flag for USA Past Weather in Tampa, Florida, USA — Yesterday and Last 2 Weeks

Now
88 °F

Clear.


Feels Like: 89 °F
Forecast: 75 / 95 °F
Wind: 8 mph from Southeast

Location: Tampa, Peter O Knight Airport

Current Time: Apr 29, 2017 at 9:08:28 pm

Latest Report: Apr 29, 2017 at 8:15 pm


Visibility: 10 mi

Pressure: 30.06 "Hg

Humidity: 46%

Dew Point: 64 °F

Location of TampaLocation

Past Weather in Tampa — Graph

°F

Tampa Temperature Yesterday

Maximum temperature yesterday: 97 °F (at 3:35 pm)
Minimum temperature yesterday: 73 °F (at 2:55 am)
Average temperature yesterday: 84 °F

High & Low Weather Summary for the Past Weeks

 TemperatureHumidityPressure
High97 °F (Apr 28, 3:35 pm)100% (Apr 27, 5:55 am)30.26 "Hg (Apr 27, 5:55 am)
Low64 °F (Apr 16, 7:15 am)26% (Apr 21, 5:15 pm)29.74 "Hg (Apr 24, 4:55 am)
Average79 °F65%30.00 "Hg
* Reported Apr 14 7:15 pm — Apr 29 7:55 pm, Tampa, Weather by CustomWeather, © 2017

Note: Actual official high and low records may vary slightly from our data, if they occured in-between our weather recording intervals... More about our weather records

Advertising

Tampa Weather History for the Previous 24 Hours

Scroll right to see more
 ConditionsComfort  
Time TempWeatherWind HumidityBarometerVisibility
7:55 pm
Sat, Apr 29
90 °FSunny.10 mph43%30.06 "Hg10 mi
7:35 pm90 °FScattered clouds.14 mph43%30.05 "Hg10 mi
7:15 pm91 °FScattered clouds.18 mph38%30.04 "Hg10 mi
6:55 pm91 °FScattered clouds.10 mph38%30.04 "Hg10 mi
6:35 pm95 °FBroken clouds.16 mph36%30.04 "Hg10 mi
6:15 pm95 °FScattered clouds.13 mph34%30.03 "Hg10 mi
5:55 pm95 °FSunny.13 mph34%30.03 "Hg10 mi
5:35 pm95 °FSunny.12 mph34%30.04 "Hg10 mi
5:15 pm97 °FScattered clouds.14 mph30%30.04 "Hg10 mi
4:55 pm95 °FScattered clouds.10 mph32%30.04 "Hg10 mi
4:35 pm97 °FScattered clouds.13 mph30%30.04 "Hg10 mi
4:15 pm95 °FScattered clouds.13 mph32%30.05 "Hg10 mi
3:35 pm97 °FScattered clouds.15 mph32%30.06 "Hg10 mi
3:15 pm97 °FSunny.14 mph32%30.07 "Hg10 mi
2:55 pm97 °FScattered clouds.14 mph32%30.08 "Hg10 mi
2:35 pm97 °FScattered clouds.15 mph34%30.09 "Hg10 mi
2:15 pm95 °FSunny.13 mph39%30.09 "Hg10 mi
1:55 pm95 °FScattered clouds.16 mph39%30.10 "Hg10 mi
1:35 pm95 °FScattered clouds.12 mph41%30.11 "Hg10 mi
12:55 pm91 °FScattered clouds.14 mph49%30.12 "Hg10 mi
12:35 pm91 °FScattered clouds.14 mph49%30.12 "Hg10 mi
11:55 am90 °FSunny.16 mph52%30.13 "Hg10 mi
11:15 am88 °FScattered clouds.16 mph59%30.13 "Hg10 mi
10:55 am88 °FPartly sunny.14 mph62%30.13 "Hg10 mi
10:35 am86 °FPartly sunny.13 mph66%30.13 "Hg10 mi
10:15 am86 °FPartly sunny.16 mph66%30.13 "Hg10 mi
9:55 am86 °FPartly sunny.17 mph66%30.14 "Hg10 mi
9:35 am82 °FPartly sunny.17 mph74%30.14 "Hg10 mi
8:35 am81 °FScattered clouds.12 mph84%30.13 "Hg10 mi
8:15 am79 °FSunny.12 mph89%30.13 "Hg10 mi
7:55 am77 °FSunny.10 mph89%30.13 "Hg10 mi
7:35 am77 °FSunny.9 mph89%30.13 "Hg10 mi
6:55 am75 °FSunny.9 mph94%30.11 "Hg10 mi
6:35 am75 °FClear.8 mph94%30.10 "Hg10 mi
6:15 am75 °FClear.8 mph94%30.09 "Hg10 mi
5:55 am75 °FClear.7 mph94%30.09 "Hg10 mi
5:35 am75 °FClear.9 mph94%30.09 "Hg10 mi
5:15 am75 °FClear.8 mph94%30.09 "Hg10 mi
4:55 am77 °FClear.10 mph89%30.09 "Hg10 mi
4:35 am77 °FClear.9 mph89%30.09 "Hg10 mi
4:15 am77 °FClear.7 mph89%30.09 "Hg10 mi
3:35 am77 °FClear.8 mph89%30.09 "Hg10 mi
3:15 am77 °FClear.6 mph89%30.09 "Hg10 mi
2:55 am77 °FClear.6 mph83%30.10 "Hg10 mi
2:35 am77 °FClear.5 mph83%30.10 "Hg10 mi
2:15 am79 °FClear.6 mph84%30.10 "Hg10 mi
1:55 am79 °FClear.6 mph84%30.11 "Hg10 mi
1:35 am79 °FClear.8 mph84%30.11 "Hg10 mi
1:15 am79 °FClear.9 mph84%30.11 "Hg10 mi
12:55 am81 °FClear.10 mph79%30.11 "Hg10 mi
12:35 am81 °FClear.10 mph79%30.11 "Hg10 mi
12:15 am81 °FClear.9 mph74%30.11 "Hg10 mi
11:55 pm
Fri, Apr 28
82 °FClear.10 mph70%30.10 "Hg10 mi
11:35 pm82 °FClear.12 mph70%30.10 "Hg10 mi
11:15 pm82 °FClear.14 mph70%30.10 "Hg10 mi
10:55 pm84 °FClear.13 mph66%30.10 "Hg10 mi
10:35 pm82 °FClear.8 mph70%30.09 "Hg10 mi
9:55 pm81 °FClear.3 mph84%30.08 "Hg10 mi
9:15 pm82 °FClear.3 mph79%30.06 "Hg10 mi
Weather by CustomWeather, © 2017

See weather overviewHow to use our weather pages